Showing default

POSAT 1, 22829

Orbit data source: Space-Track

POSAT 1, 22829 is a payload satellite owned by INETI (PT) in SSO that was launched on Sun, 26 Sep 1993 UTC via an ARIANE 40 launch vehicle from the French Guiana (FRGUI). Payload-class satellites include a variety of spacecraft equipped with specific instruments for various scientific and technological missions. These include communications satellites like Starlink; space stations such as the ISS; scientific satellites like the Hubble; Earth observation satellites from companies like Planet Labs, Umbra, and HawkEye 360; GPS; miniature CubeSats for education and research; and military/defense satellites.

Loading next visibility...
Identifier
22829, 1993-061G
Orbit
SSO
Country
Flag of PTPT / POR
Related business
Manufacturer
SSTL
Mission
Non-operational Amateur Communications
Bus & Motor
UOSAT, Unknown motor
Mass
50 kg wet, 50 kg dry
Launch date (UTC)
1993-09-26 (32 years ago)
Launch vehicle
ARIANE 40
Launch site
French Guiana (FRGUI)
Object type
Payload
Rocket body
Debris
Shape & HBR
Box + 1 Ant, 3.3 m
Radar Cross Section
0.597 m², Medium (>0.1 m² and < 1m²)

Expand to show TLE details & history
Last TLE update: 12 hours ago

TLE from 12 hours ago
0 POSAT 1
1 22829U 93061G   25258.10723687  .00000061  00000-0  39651-4 0  9993
2 22829  98.7052 320.0323 0010748 115.9743 244.2548 14.31804542668684
Epoch: 2025-09-15T02:34Z
TLE epoch observation values (Epoch: 2025-09-15T02:34:25.265Z)
Latitude
-0.00007°
Longitude
-72.8896°
Altitude
791.988 km
Speed
7.456 km/s
True Right ascension
21h 20m 07s
True Declination
0° 00' 00"
Sunlit
Object was in full shadow at epoch
Visualization orbit readout
Latitude
Unknown
Longitude
Unknown
Altitude
Unknown
Speed
Unknown
Apparent Right ascension
Unknown
Apparent Declination
Unknown
Sunlit
N/A
Visualization observer readout
Local Sidereal Time
06:50:57
Azimuth
Unknown
Elevation
Unknown
Doppler factor
Unknown
Orbital elements
Apogee altitude
790.545 km
Perigee altitude
775.151 km
Semi-major axis
7,160.985 km
Eccentricity
0.00107
Inclination
98.7052°
RAAN
320.0323°
Arg. of periapsis
115.9743°
True anomaly
244.14393°
Mean anomaly
244.2548°
Eccentric anomaly
244.19936°
Mean motion
3.58166 °/min
Orbital period
100.51 mins
BSTAR
0.000039651
Loading maneuver chart data...
Computing Atmospheric mass density...
Loading historical data...
Loading historical data...
Loading historical data...
Loading historical data...
Loading historical data...
Loading historical data...
Loading historical data...

Documentation

Showing up to 5 results
|